Wetbulb
76.10 76.65 76.51 74.24 74.76 73.81 74.39 74.01 69.82 65.37 65.76 67.49 69.82 74.01 76.27 76.56 76.98 75.93 75.82 72.17 71.63 71.03 70.29 70.12 70.72 71.70 72.75 73.47 73.78 73.96 74.46 74.86 74.81 74.58 74.53 74.65 74.82 74.42
75.44 75.55 76.46 75.31 75.36 75.13 73.53 75.27 74.22 71.36 66.78 68.37 70.87 71.21 76.80 76.67 75.98 76.60 76.86 73.31 71.25 70.68 69.87 69.36 69.66 70.36 71.20 71.89 71.94 71.93 72.30 72.58 72.74 72.59 72.38 72.10 72.06 72.12
76.80 76.08 76.23 77.56 75.52 75.22 75.29 74.77 74.08 74.21 70.63 71.63 70.44 71.38 71.44 76.80 75.74 77.77 77.54 76.57 73.24 70.10 69.83 69.38 68.95 69.51 70.25 70.52 70.59 70.47 70.69 70.88 70.68 70.80 70.91 70.77 70.74 71.03
75.32 75.24 74.86 74.99 76.56 76.37 75.33 74.86 75.41 75.65 73.38 70.98 73.97 72.82 75.64 77.37 77.02 76.89 77.33 76.83 76.52 71.82 69.73 69.07 68.43 68.40 68.25 68.59 68.32 68.32 68.00 68.20 68.23 68.60 69.13 69.41 69.94 70.09
75.03 74.91 75.64 76.36 75.98 75.89 76.00 74.96 74.56 74.91 74.98 73.00 72.45 75.81 76.40 73.96 76.44 76.86 76.73 77.26 77.76 72.78 68.95 68.60 68.09 67.75 67.20 66.33 66.10 65.39 64.40 64.25 64.59 64.99 65.77 66.26 67.47 68.38
75.61 75.50 75.89 75.54 75.30 75.29 74.90 75.31 74.06 74.58 74.50 72.90 72.82 73.65 75.10 76.57 75.62 74.27 74.26 76.34 75.99 77.44 73.53 72.05 69.97 68.68 67.49 65.90 65.55 65.25 63.02 61.79 61.31 61.66 62.04 62.40 63.50 64.71
75.09 75.47 76.63 75.97 74.48 74.46 74.23 75.06 74.64 73.92 73.78 72.44 71.93 72.40 73.19 73.23 72.90 73.58 71.05 71.88 74.99 74.88 73.73 73.83 73.30 72.60 72.07 67.63 68.76 67.53 64.51 63.03 61.19 60.10 59.25 58.93 59.41 60.27
73.29 75.41 76.39 74.29 73.14 70.27 70.20 70.05 73.71 73.51 72.78 71.66 72.10 71.88 71.74 72.85 73.75 73.22 73.05 71.65 69.83 76.62 74.37 74.14 74.50 72.94 73.60 74.26 70.81 67.56 65.26 63.87 61.66 60.75 59.79 58.49 58.17 58.15
74.94 75.09 74.98 73.93 72.88 74.91 69.45 68.58 68.84 68.12 69.58 72.81 72.43 73.11 73.38 73.65 74.43 73.51 72.66 73.07 72.28 74.34 73.82 72.33 73.73 72.45 74.40 71.13 65.66 65.30 64.04 62.31 61.44 60.68 59.52 58.48 57.91 56.87
74.67 76.13 74.65 74.17 74.76 75.07 75.58 75.04 74.91 75.05 73.14 71.62 72.03 72.86 73.58 74.80 76.33 76.07 73.91 74.12 74.06 74.71 74.85 70.03 72.40 71.53 71.25 68.89 65.50 63.81 61.93 60.53 59.51 58.35 56.40 54.27 52.27 51.66
73.95 74.38 75.01 75.31 71.19 67.66 74.83 74.29 74.21 75.05 71.59 67.22 69.44 71.15 70.30 70.54 71.57 74.47 72.14 71.36 70.11 72.10 73.18 71.11 71.49 70.85 71.99 69.68 64.92 62.88 60.78 59.38 58.08 57.21 54.88 53.90 52.54 52.38
73.56 73.55 67.92 71.92 69.33 65.82 73.06 73.68 72.45 73.21 75.00 74.38 74.11 71.07 67.54 70.65 65.78 73.41 73.47 70.83 70.69 69.60 72.94 70.44 70.74 69.96 67.19 69.79 66.23 64.33 60.97 57.13 55.60 55.45 54.99 54.04 52.10 57.00
71.39 72.43 73.67 65.17 62.31 61.49 63.59 74.39 72.20 72.79 73.31 73.66 73.99 73.38 73.76 74.14 73.09 72.78 74.42 73.45 71.16 70.22 68.86 70.57 69.37 68.54 67.23 65.47 67.88 68.08 66.73 60.39 61.21 56.99 54.51 53.61 53.62 54.14
71.78 73.28 73.58 61.02 58.67 58.58 60.79 63.97 61.28 63.40 71.44 72.20 72.21 71.39 72.02 73.71 74.72 74.18 73.76 73.21 71.02 69.21 69.01 69.57 67.05 65.39 63.93 62.79 62.31 65.32 63.58 63.09 60.62 59.27 57.27 55.70 54.86 54.90
73.60 71.08 60.34 56.40 55.82 58.05 58.92 60.57 60.37 68.28 69.32 69.93 69.94 70.50 72.89 74.11 74.36 73.15 71.89 70.31 68.77 68.03 67.79 67.18 65.84 65.42 63.43 61.81 61.12 61.28 59.75 61.35 60.00 57.71 57.84 56.70 55.78 56.58
62.94 66.68 65.30 64.52 64.28 66.77 65.84 62.41 67.45 69.09 69.60 70.01 70.13 72.61 74.18 72.52 71.67 70.97 69.09 68.09 66.09 64.58 65.93 65.46 65.24 64.16 63.04 62.53 62.69 60.91 61.03 57.59 59.46 56.83 57.01 57.24 57.36 56.89
68.51 71.22 69.33 69.62 69.32 68.98 69.55 70.05 69.66 70.13 69.76 71.14 72.36 72.44 72.06 71.22 70.05 70.56 69.45 67.16 65.16 64.13 62.84 63.64 64.66 64.75 65.00 63.01 60.96 61.97 59.76 59.67 57.89 56.52 57.07 56.80 57.10 56.54
67.69 69.04 69.77 70.44 70.04 70.15 69.61 69.49 69.89 69.29 70.85 71.49 72.12 70.99 69.76 68.43 68.11 67.04 66.11 65.80 64.09 63.81 64.24 63.57 63.07 62.00 61.59 63.08 62.57 59.84 60.81 59.58 58.43 58.22 57.76 56.20 55.94 55.95
68.93 70.14 70.94 70.21 69.57 69.37 69.74 68.72 68.72 69.87 71.51 70.86 70.93 69.92 68.91 67.54 64.59 64.80 64.73 63.68 62.55 64.73 63.72 64.44 63.03 61.73 59.60 59.02 61.18 56.60 61.05 60.70 59.34 58.99 59.73 58.67 56.24 56.71
69.37 70.70 71.26 70.16 69.50 69.11 69.30 69.39 69.55 69.72 70.21 69.99 69.67 69.16 67.70 65.82 64.38 64.08 63.54 62.50 62.98 64.01 63.36 63.83 63.17 63.02 61.63 59.63 60.10 61.33 52.65 61.94 60.19 60.07 58.93 57.21 53.19 55.38
69.09 70.06 70.16 69.43 69.01 69.99 68.87 69.94 69.57 69.35 69.77 68.84 68.47 67.48 66.35 65.51 64.83 63.57 63.43 57.81 60.33 63.38 61.47 61.37 62.39 61.30 60.73 60.42 57.48 59.34 59.40 51.95 58.48 61.51 61.22 58.22 54.85 54.73
69.81 69.70 69.82 68.83 68.78 69.14 69.05 68.73 70.01 69.45 67.49 67.43 67.02 66.74 66.61 65.65 64.44 63.38 63.45 61.02 60.93 61.87 61.52 61.64 60.51 60.39 58.54 57.25 56.55 58.10 61.03 60.28 54.70 54.41 55.90 59.20 59.09 56.88
69.66 69.94 69.57 68.57 69.44 71.70 70.20 69.21 68.87 68.68 66.29 66.72 66.00 66.38 66.17 64.63 65.43 64.73 63.78 63.73 61.66 60.58 60.14 61.34 61.03 61.55 59.83 59.49 58.46 59.07 60.63 59.09 58.88 57.25 57.80 55.76 55.17 55.20
MSLP
1014.73 1014.68 1014.84 1014.67 1014.57 1014.34 1014.60 1015.30 1015.83 1017.23 1017.22 1017.92 1017.08 1015.55 1015.48 1015.73 1015.89 1016.06 1016.13 1016.58 1016.83 1017.18 1017.51 1017.82 1018.12 1018.41 1018.66 1018.83 1019.00 1019.18 1019.28 1019.38 1019.46 1019.56 1019.66 1019.73 1019.74 1019.74
1014.41 1014.51 1014.51 1014.41 1014.57 1014.34 1014.36 1014.72 1015.20 1015.80 1016.73 1017.18 1017.28 1017.03 1014.97 1015.13 1015.64 1015.78 1015.62 1015.82 1016.21 1016.61 1016.97 1017.22 1017.48 1017.82 1018.12 1018.31 1018.45 1018.62 1018.79 1018.97 1019.09 1019.16 1019.26 1019.32 1019.33 1019.34
1014.36 1014.54 1014.51 1014.49 1014.57 1014.51 1014.56 1014.28 1014.81 1015.23 1015.88 1016.26 1017.19 1016.11 1016.18 1015.07 1015.52 1015.48 1015.29 1015.43 1015.68 1015.81 1016.20 1016.52 1016.80 1017.13 1017.46 1017.71 1017.90 1018.07 1018.25 1018.40 1018.50 1018.59 1018.68 1018.72 1018.71 1018.71
1014.54 1014.49 1014.68 1014.43 1014.57 1014.68 1014.80 1014.89 1014.85 1015.07 1015.59 1015.76 1015.60 1015.68 1015.07 1015.10 1015.26 1015.49 1014.92 1014.59 1014.59 1015.01 1015.34 1015.76 1016.05 1016.41 1016.73 1016.90 1017.07 1017.26 1017.43 1017.55 1017.69 1017.82 1017.90 1017.98 1018.02 1018.17
1014.33 1014.38 1014.29 1014.24 1014.50 1014.81 1014.82 1014.91 1014.90 1014.70 1014.99 1015.53 1015.24 1014.54 1014.59 1014.70 1014.75 1014.95 1014.80 1014.36 1014.00 1014.05 1014.62 1015.01 1015.34 1015.66 1015.90 1015.97 1016.03 1016.16 1016.33 1016.57 1016.88 1017.09 1017.21 1017.33 1017.38 1017.45
1013.88 1013.93 1013.86 1014.07 1014.35 1014.49 1014.68 1014.73 1014.70 1014.87 1015.14 1015.41 1015.28 1014.88 1014.52 1014.27 1014.31 1014.54 1014.52 1014.20 1013.89 1013.62 1014.16 1014.24 1014.67 1014.76 1014.84 1015.13 1015.38 1015.45 1015.63 1015.85 1015.99 1016.14 1016.36 1016.57 1016.75 1016.94
1013.43 1013.71 1013.54 1013.60 1013.62 1013.91 1014.32 1014.46 1014.51 1014.69 1014.87 1014.99 1014.86 1014.41 1014.28 1014.19 1014.18 1014.04 1013.87 1013.80 1013.56 1013.74 1013.89 1013.86 1014.21 1014.68 1014.55 1014.84 1014.91 1014.99 1014.99 1015.12 1015.42 1015.97 1016.25 1016.41 1016.48 1016.51
1013.05 1013.13 1013.32 1013.49 1013.39 1013.57 1013.66 1013.72 1013.93 1014.29 1014.62 1014.77 1014.76 1014.59 1014.35 1014.31 1013.99 1014.02 1013.83 1014.06 1013.87 1013.26 1013.40 1013.58 1013.53 1013.89 1013.53 1013.24 1013.24 1013.50 1013.89 1014.45 1015.29 1015.66 1015.99 1016.11 1016.20 1016.21
1012.15 1012.38 1012.67 1012.67 1012.66 1012.79 1012.89 1013.21 1013.41 1013.55 1013.76 1014.11 1014.27 1013.96 1013.93 1014.10 1013.97 1013.97 1013.95 1013.93 1013.89 1013.66 1013.77 1013.79 1013.53 1013.49 1012.97 1013.24 1013.10 1013.31 1013.94 1014.79 1015.12 1015.55 1015.99 1016.25 1016.34 1015.93
1011.26 1011.60 1011.90 1012.17 1012.20 1012.40 1012.64 1012.89 1013.17 1013.12 1013.21 1013.51 1013.52 1013.38 1013.36 1013.42 1013.78 1013.86 1014.00 1014.03 1013.96 1013.65 1013.62 1013.85 1013.61 1013.58 1013.82 1013.95 1013.79 1013.95 1014.41 1014.93 1015.47 1015.90 1016.21 1016.39 1016.30 1015.88
1010.64 1010.88 1011.20 1011.47 1011.60 1012.02 1012.07 1012.31 1012.47 1012.37 1012.04 1012.43 1012.51 1012.52 1012.76 1012.91 1013.12 1013.52 1013.72 1014.09 1013.96 1013.76 1013.54 1013.78 1013.74 1013.74 1013.59 1014.28 1014.44 1014.41 1014.83 1015.26 1015.61 1015.82 1016.03 1015.98 1015.74 1015.31
1009.92 1010.08 1010.26 1010.45 1010.77 1011.09 1011.51 1011.72 1011.90 1011.81 1011.82 1011.95 1012.39 1012.66 1012.66 1012.60 1013.02 1012.95 1013.17 1013.58 1013.86 1013.90 1013.41 1013.64 1013.54 1013.74 1013.63 1013.53 1014.39 1014.75 1015.20 1015.58 1015.69 1015.81 1015.82 1015.70 1015.52 1015.32
1009.05 1009.09 1009.22 1009.40 1009.84 1010.31 1010.73 1011.04 1011.16 1011.19 1011.40 1011.72 1011.82 1011.85 1011.89 1012.02 1012.39 1012.48 1012.50 1012.87 1013.34 1013.67 1013.76 1013.76 1013.69 1013.87 1013.96 1013.91 1013.91 1014.30 1014.25 1015.33 1015.34 1015.75 1015.62 1015.49 1015.48 1015.52
1007.94 1008.03 1008.08 1008.47 1008.98 1009.51 1010.18 1010.42 1010.79 1011.05 1011.21 1011.35 1011.41 1011.32 1011.22 1011.34 1011.67 1011.96 1012.04 1012.40 1013.00 1013.55 1013.77 1013.73 1013.99 1014.16 1014.39 1014.36 1014.39 1014.22 1014.50 1014.62 1014.91 1015.23 1015.50 1015.47 1015.49 1015.32
1007.26 1007.23 1007.52 1008.07 1008.83 1009.41 1009.68 1010.13 1010.39 1010.70 1010.83 1010.82 1010.66 1010.53 1010.41 1010.81 1011.27 1011.77 1012.11 1012.64 1013.06 1013.46 1013.63 1013.83 1014.09 1014.10 1014.38 1014.46 1014.30 1014.33 1014.59 1014.71 1014.89 1015.35 1015.43 1015.51 1015.58 1015.42
1007.48 1007.48 1007.68 1007.99 1008.39 1008.78 1009.35 1009.94 1009.91 1009.79 1009.92 1009.85 1009.80 1009.70 1010.02 1010.66 1011.01 1011.38 1011.86 1012.46 1012.91 1013.37 1013.51 1013.73 1013.89 1014.14 1014.24 1014.22 1014.12 1014.20 1014.21 1014.66 1014.84 1015.34 1015.63 1015.46 1015.25 1015.24
1006.65 1007.12 1007.47 1007.77 1008.12 1008.41 1008.62 1008.62 1008.82 1008.90 1009.10 1009.02 1009.08 1009.34 1009.92 1010.41 1010.66 1010.82 1011.19 1011.74 1012.15 1012.70 1013.39 1013.76 1013.89 1014.07 1014.07 1014.01 1013.98 1013.73 1013.91 1014.24 1014.63 1015.07 1015.18 1014.97 1014.98 1014.94
1006.10 1006.24 1006.48 1006.68 1006.95 1007.20 1007.50 1007.62 1007.81 1007.93 1008.01 1008.26 1008.55 1008.88 1009.35 1009.72 1010.09 1010.37 1010.78 1011.16 1011.53 1011.86 1012.41 1012.99 1013.56 1013.92 1013.95 1013.68 1013.61 1013.86 1013.69 1013.92 1014.28 1014.65 1014.75 1014.82 1014.93 1014.78
1005.91 1005.31 1005.30 1005.56 1005.83 1006.19 1006.45 1006.62 1006.96 1007.30 1007.45 1007.79 1008.05 1008.25 1008.68 1009.11 1009.68 1010.10 1010.48 1010.84 1011.11 1011.18 1011.45 1012.03 1012.67 1012.97 1013.21 1013.10 1013.22 1013.47 1013.58 1013.43 1013.71 1013.97 1013.99 1014.15 1014.31 1014.40
1005.19 1004.52 1004.22 1004.40 1004.83 1005.26 1005.53 1005.84 1006.28 1006.55 1006.80 1007.24 1007.39 1007.65 1007.98 1008.51 1009.17 1009.59 1010.00 1010.35 1010.55 1010.58 1010.91 1011.27 1011.65 1012.07 1012.34 1012.33 1012.55 1012.73 1013.01 1012.84 1013.15 1013.29 1013.49 1013.66 1014.43 1014.34
1003.70 1003.22 1002.89 1003.29 1003.68 1004.05 1004.42 1004.74 1005.33 1005.71 1006.09 1006.60 1006.97 1007.34 1007.67 1008.03 1008.47 1009.01 1009.36 1009.57 1009.78 1010.11 1010.59 1010.88 1010.94 1011.31 1011.38 1011.61 1012.23 1012.55 1012.49 1012.34 1012.26 1012.57 1012.70 1013.12 1013.64 1013.84
1001.45 1001.94 1002.28 1002.50 1002.65 1002.85 1003.34 1003.88 1004.44 1004.91 1005.41 1005.86 1006.34 1006.72 1007.14 1007.51 1007.80 1008.26 1008.63 1008.98 1009.26 1009.50 1009.87 1010.38 1010.66 1010.98 1011.41 1011.65 1011.97 1012.03 1011.75 1011.84 1012.01 1012.08 1012.07 1011.93 1012.19 1012.28
1000.78 1001.15 1001.49 1001.45 1001.73 1001.86 1002.18 1002.91 1003.64 1004.15 1004.59 1005.16 1005.61 1006.05 1006.45 1006.92 1007.29 1007.51 1007.82 1008.15 1008.55 1008.89 1009.47 1009.95 1010.27 1010.55 1010.84 1011.07 1011.11 1011.12 1011.33 1011.74 1011.82 1011.85 1011.68 1011.20 1011.30 1011.34
Wind_Speed
5 5 4 4 4 2 3 3 4 4 4 5 2 6 3 5 6 8 8 15 16 15 15 15 14 14 14 14 13 12 12 12 11 11 11 10 10 12
5 5 6 3 6 0 2 4 3 4 4 7 0 8 5 2 8 8 7 13 17 15 15 15 15 14 14 14 13 13 12 12 12 11 11 11 11 11
5 5 3 5 4 4 6 1 1 2 1 4 4 9 8 4 5 5 5 5 8 18 17 16 15 15 14 14 14 13 12 12 13 12 13 13 13 13
6 6 6 5 5 4 4 6 3 3 3 3 3 8 7 5 5 6 5 6 5 16 19 17 17 16 16 15 15 15 15 15 15 14 13 14 14 13
6 9 6 6 2 4 4 4 5 2 2 2 4 3 2 3 5 6 7 6 6 6 18 17 16 16 17 17 17 17 17 16 15 14 14 13 13 14
8 7 6 6 6 5 5 5 5 4 3 3 4 4 3 4 5 5 3 4 6 2 8 13 15 18 18 18 17 17 17 16 16 15 14 13 11 11
7 6 6 7 11 9 5 6 5 4 4 5 5 3 2 2 4 3 3 1 4 3 5 5 7 5 7 12 14 16 16 16 14 10 8 8 9 10
9 7 6 8 9 10 12 11 8 4 5 4 4 4 4 3 3 3 2 2 3 1 3 2 4 5 7 7 14 19 16 12 5 4 6 7 7 7
10 8 7 9 10 10 11 10 9 10 10 5 6 7 5 3 5 5 3 1 2 4 3 3 3 4 4 4 8 10 10 9 8 7 4 1 5 5
7 7 9 10 10 6 7 6 7 8 7 8 10 10 10 7 4 2 3 3 3 3 1 3 3 6 2 3 11 14 14 13 11 9 7 5 7 9
8 8 9 9 12 7 6 7 7 8 9 13 15 9 7 7 6 2 4 3 4 3 2 2 3 2 2 4 4 12 13 12 11 9 7 5 8 12
10 11 14 12 12 11 6 7 8 9 5 5 3 4 5 6 5 6 5 5 3 3 2 1 1 2 3 2 6 5 5 7 8 7 6 6 9 6
10 10 11 17 16 13 12 8 8 6 5 4 5 6 8 6 5 6 5 4 4 5 1 1 1 2 2 2 1 5 4 4 3 4 3 8 7 3
10 10 9 13 13 13 10 11 8 3 3 4 5 6 6 5 4 4 4 4 5 4 3 3 1 1 3 2 3 2 3 4 3 1 3 4 5 7
11 8 12 13 13 8 7 6 5 4 5 6 7 7 4 5 5 5 5 7 5 3 2 2 1 1 2 3 2 1 1 2 3 3 4 2 2 3
4 5 6 7 6 6 6 7 6 6 7 7 8 4 4 4 5 6 5 6 4 4 3 4 3 2 3 4 3 3 2 1 3 4 2 4 2 2
11 6 5 5 5 6 6 7 7 7 8 8 4 4 4 4 5 6 5 6 5 6 5 4 4 5 4 1 3 3 3 2 4 2 2 3 3 3
8 10 9 8 9 9 8 8 6 6 7 6 5 5 6 6 5 4 3 3 3 4 7 6 6 3 3 5 6 4 3 4 4 5 4 3 3 3
9 10 10 9 8 7 7 8 7 7 5 6 5 6 7 5 5 4 4 4 4 4 4 8 7 6 6 7 2 8 3 4 5 4 5 5 3 4
9 11 10 10 9 9 9 8 8 7 8 7 5 5 5 5 5 5 5 6 5 4 4 3 4 5 6 1 3 4 12 3 4 4 4 2 3 6
15 11 8 9 9 10 8 6 9 9 7 7 5 5 5 6 5 5 5 6 6 4 5 5 5 6 4 3 2 3 4 12 4 4 1 4 4 5
11 10 8 9 7 9 9 8 7 5 7 7 7 5 5 5 5 7 6 6 4 4 4 4 4 4 2 4 5 7 3 4 6 9 9 7 4 3
11 11 11 8 5 5 7 8 7 7 7 8 7 6 5 6 5 5 7 5 6 5 3 5 6 4 5 5 7 5 3 5 5 5 6 15 15 13
Wind_Direction
268 268 277 285 288 144 136 150 162 124 188 296 309 309 277 170 178 181 173 194 195 201 207 210 215 222 226 231 234 238 241 243 246 251 253 254 257 264
244 257 265 307 329 312 220 139 198 184 150 195 125 293 232 177 175 190 197 183 198 202 209 211 213 220 227 230 231 234 238 242 246 249 251 254 256 257
277 305 303 302 310 332 334 209 239 168 122 160 159 241 281 144 165 228 166 180 192 207 207 210 213 216 221 226 229 231 234 236 237 239 242 245 246 248
266 254 232 242 247 301 308 317 327 358 24 316 178 209 202 188 188 202 223 239 207 202 201 205 208 213 217 219 222 225 226 229 231 233 235 238 244 249
240 245 225 247 218 265 280 302 314 289 304 212 284 237 151 209 199 211 212 226 255 188 194 209 208 213 221 223 223 221 222 225 229 230 235 239 241 245
240 250 211 226 211 223 255 275 279 292 297 291 258 270 219 197 176 203 219 242 244 224 194 200 215 220 221 225 228 227 227 229 227 227 230 234 241 249
271 265 250 231 208 198 208 230 247 289 284 286 270 270 286 282 192 216 182 277 254 210 209 220 216 223 238 238 244 239 233 231 232 240 244 249 252 253
226 237 244 254 230 196 212 219 188 210 257 266 274 283 282 339 354 325 314 6 330 271 30 311 153 219 239 217 213 223 218 226 203 195 239 249 253 258
202 212 228 250 228 215 218 228 227 209 208 228 267 272 296 277 294 276 276 300 262 305 9 275 277 285 328 64 79 108 114 124 115 99 90 6 295 286
219 213 211 234 264 242 209 208 232 240 221 226 232 247 251 265 258 267 334 309 315 290 316 282 302 286 131 40 89 98 107 107 110 109 90 48 348 318
229 229 222 218 236 187 192 208 227 235 235 229 234 245 250 245 234 238 258 239 272 258 258 188 251 297 286 138 120 117 120 125 137 132 107 62 9 313
223 224 227 226 208 214 215 211 232 244 229 262 223 240 220 228 204 220 220 236 219 291 160 229 84 43 317 108 133 144 129 124 134 132 121 70 34 348
225 219 217 214 215 209 203 224 226 231 231 243 258 251 245 214 190 203 217 204 225 238 90 278 14 337 244 296 118 151 138 149 163 160 164 40 19 7
227 221 217 179 184 190 182 219 161 180 225 244 242 252 245 183 175 175 156 127 79 66 79 17 11 24 355 333 264 74 62 101 90 64 64 25 353 345
229 233 142 163 167 159 190 188 173 190 225 237 240 246 215 165 149 126 111 99 97 122 156 101 291 2 164 249 261 279 170 157 106 72 18 346 352 356
150 144 163 158 154 173 168 202 208 203 215 227 232 215 127 153 175 161 169 168 167 165 159 174 225 196 236 225 225 245 108 138 111 76 341 292 217 131
190 176 168 180 181 196 209 192 197 201 221 230 227 161 162 176 187 187 195 176 192 163 172 170 187 238 286 274 296 198 134 168 105 119 225 252 172 131
186 200 193 196 204 207 204 205 205 210 216 212 196 183 186 185 179 152 167 206 181 214 167 166 163 191 221 244 208 270 172 139 149 188 233 265 157 164
205 204 194 199 206 213 212 197 200 213 211 229 209 189 186 169 167 162 175 184 228 202 176 153 174 189 222 238 161 225 235 159 164 204 199 215 159 184
241 213 198 199 203 202 213 196 195 202 207 220 205 184 166 165 167 180 183 195 215 188 168 159 175 194 224 246 161 207 218 173 192 192 191 109 66 53
216 218 223 204 210 199 200 200 189 206 190 200 193 197 189 187 171 184 215 201 196 179 181 183 197 151 124 73 347 196 219 237 225 193 203 178 178 177
191 213 221 214 228 195 185 201 181 173 184 183 188 196 191 194 186 190 215 166 174 193 181 122 136 135 125 168 234 266 174 186 226 244 257 208 187 213
199 205 214 217 209 199 172 165 186 197 173 179 189 194 187 194 205 198 196 197 174 171 212 171 178 178 190 203 225 253 118 177 197 212 241 225 233 250